Regional Weather Roundup
Issued by NWS

Home | Current Version | Previous Version | Text Only | Print | Product List | Glossary Off
Versions: 1 2 3 4 5 6 7 8 9 10 11 12 13 14 15 16 17 18 19 20 21 22 23 24 25 26 27 28 29 30 31 32 33 34 35 36 37 38 39 40 41 42 43 44 45 46 47 48 49 50

000
ASUS45 KTFX 282204
RWRMT
MONTANA HOURLY WEATHER ROUNDUP
NATIONAL WEATHER SERVICE GREAT FALLS MT
304 PM MST FRI NOV 28 2014

NOTE: "FAIR" INDICATES FEW OR NO CLOUDS BELOW 12000 FEET WITH NO
SIGNIFICANT WEATHER AND/OR OBSTRUCTIONS TO VISIBILITY.

* THESE STATIONS ARE NOT UNDER NWS QUALITY CONTROL. THEY DO NOT
   REPORT WEATHER SUCH AS PRECIPITATION OR FOG.

MTZ001>007-043-282300-
WEST OF THE DIVIDE
CITY           SKY/WX    TMP DP  RH WIND       PRES   REMARKS
KALISPELL      CLOUDY    46  39  77 S13       29.36F
MISSOULA       CLOUDY    50  36  59 VRB6      29.50F
BUTTE          CLOUDY    45  27  49 E8        29.58F
MULLAN PASS    LGT RAIN  34  34 100 SW15G32   29.42F VSB 1 1/2 WCI  24
* ESSEX        N/A       39  37  93 N/A        N/A
* LINCOLN      N/A       45  34  65 W4G10      N/A
* LOOKOUT PASS N/A       40  37  89 SE10G25    N/A   WCI  34
* POLSON       N/A       46  39  77 S4G12      N/A
* RONAN APT    CLOUDY    48  37  66 SE11G26    N/A
* SEELEY LAKE  N/A       44  35  71 S3         N/A
* THOMP F APT  CLOUDY    45  23  42 S4G16      N/A
* YAAK HILL    N/A       46  43  89 SE2        N/A
$$

MTZ008-052>055-282300-
SOUTHWEST MONTANA
CITY           SKY/WX    TMP DP  RH WIND       PRES   REMARKS
BOZEMAN        CLOUDY    52  28  40 SW8       29.56F
DILLON         PTCLDY    54  21  27 SW26G39   29.56F
* W YELLOWSTON PTSUNNY   40  24  53 SW6G14     N/A   WCI  36
* ENNIS APT    CLOUDY    50  21  32 S24G32     N/A
* THREE FORKS  CLOUDY    54  48  80 N/A        N/A
* BOULDER HILL N/A       48  25  41 S23G32     N/A
* MONIDA PASS  N/A       37  24  59 SE17G24    N/A   WCI  27
* RAYNOLDS PAS N/A       40  26  57 S11G17     N/A   WCI  33
* WHITEHALL    N/A       52  27  38 SW10G25    N/A
* WISE RIVER   N/A       42  30  63 NW9G22     N/A
$$

MTZ009>010-012-014-046-048-049-054-282300-
EAST SLOPES AND CENTRAL MONTANA
CITY           SKY/WX    TMP DP  RH WIND       PRES   REMARKS
CUT BANK       HAZE       3  -2  79 N29G36    29.51R WCI -21
GREAT FALLS    PTSUNNY   54  34  47 SW24G32   29.40R
HELENA         CLOUDY    55  30  39 SW12G21   29.48F
MALMSTROM AFB  PTSUNNY   54  32  43 W20G31    29.45R
* DEARBORN     N/A       55  32  42 SE15G29    N/A
* EAST GLACIER N/A        8   5  87 E12G19     N/A   WCI  -7
* PENDROY      N/A       11  10  96 VRB22      N/A   WCI  -8
* ROGERS PASS  N/A       41  32  70 SE6G16     N/A
* SAINT MARY   N/A        1  -5  75 N7G16      N/A   WCI -12
* SWEET GRASS  N/A       -2  -4  91 VRB26G32    N/A   WCI -27
$$

MTZ011-013-016-021-035-040-045-047-050-051-282300-
NORTH CENTRAL MONTANA
CITY           SKY/WX    TMP DP  RH WIND       PRES   REMARKS
HAVRE          LGT SNOW  10   7  88 NW14      29.59R WCI  -6
LEWISTOWN      PTSUNNY   55  30  39 W21G29    29.45S
* N BAR RANCH  SUNNY     54  27  35 W17G24    29.47S
* CHESTER      N/A       16  10  77 NE5        N/A   WCI   8
* DENTON       N/A       59  31  35 SW24G33    N/A
* GEYSER       N/A       53  26  35 SW28G34    N/A
* JUDITH GAP   N/A       53  26  35 SW26G38    N/A
* LOMA         N/A       16  12  84 N14G23     N/A   WCI   2
$$

MTZ017>020-022>027-061-062-282300-
NORTHEAST MONTANA
CITY           SKY/WX    TMP DP  RH WIND       PRES   REMARKS
GLASGOW        HAZE      28  25  89 NW6       29.41R WCI  21
GLENDIVE       CLOUDY    41  34  76 S8        29.45F
JORDAN         CLOUDY    54  37  53 SW13      29.39F
SIDNEY         PTSUNNY   28  27  96 CALM      29.46F
WOLF POINT     PTSUNNY   30  25  82 E6        29.42F WCI  24
* BEAVER HILL  N/A       46  33  61 S16        N/A
* CIRCLE       N/A       49  38  66 SW1        N/A
* LINDSAY DVD  N/A       49  33  54 SW14G20    N/A
* NAVAJO       N/A       23  21  92 S3         N/A
* SACO         N/A       28  24  85 NW10       N/A   WCI  19
$$

MTZ028>042-056>058-282300-
SOUTHCENTRAL AND SOUTHEAST MONTANA
CITY           SKY/WX    TMP DP  RH WIND       PRES   REMARKS
BAKER          CLOUDY    50  30  46 SW12      29.49F
BILLINGS       PTSUNNY   57  28  33 W18G30    29.52F
LIVINGSTON     CLOUDY    54  25  33 SW30G40   29.54F
MILES CITY     CLOUDY    46  36  68 S8        29.45F
* LAUREL APT   PTCLDY    55  28  35 SW13G20    N/A
* ALZADA       N/A       52  31  45 SE4        N/A
* HYSHAM       N/A       58  22  25 W7         N/A
* LAME DEER    N/A       55  25  31 SW8G16     N/A
* REED POINT   N/A       57  26  30 W18G30     N/A
* ROSCOE HILL  N/A       50  12  22 SW26G48    N/A
$$

REGIONAL REPORTS...DAKOTAS
CITY           SKY/WX    TMP DP  RH WIND       PRES   REMARKS
WILLISTON      PTCLDY    25  19  78 SE3       29.47F
DICKINSON      PTSUNNY   39  32  76 S9        29.45F WCI  33
BEACH          SUNNY     45  32  60 SW10      29.46F
CROSBY         SUNNY     18  14  84 SE12      29.49F WCI   5
BISMARCK       PTSUNNY   21  16  81 E9        29.61F WCI  11
GRAND FORKS    CLOUDY    16   9  74 SE9       29.79F WCI   5
FARGO          PTCLDY    18  10  71 E9        29.77F WCI   7
BUFFALO SD     CLOUDY    52  34  50 SW12      29.47F
RAPID CITY     PTCLDY    57  25  29 W10       29.56S
$$

REGIONAL REPORTS...WYOMING/IDAHO/WASHINGTON
CITY           SKY/WX    TMP DP  RH WIND       PRES   REMARKS
GILLETTE       PTSUNNY   54  25  33 SW15      29.61S
SHERIDAN       PTSUNNY   63  19  18 W13G23    29.57S
CODY           PTSUNNY   52  23  32 W36G47    29.63R
YELLOWSTONE LA CLOUDY    37  18  46 VRB7      29.79F WCI  32
SALMON         PTCLDY    57  18  22 SW18G33   29.57F
MULLAN PASS    LGT RAIN  34  34 100 SW15G32   29.42S VSB 1 1/2 WCI  24
SAND POINT     N/A       50  41  71 SW20G29   29.33F
SPOKANE        CLOUDY    52  39  61 SW30G37   29.36F
$$

REGIONAL REPORTS...SASKATCHEWAN
CITY           SKY/WX    TMP DP  RH WIND       PRES   REMARKS
SWIFT CURRENT  LGT SNOW  14  12  92 NW21G26   29.46R VSB 2 1/2 WCI  -4

$$




USA.gov is the U.S. government's official web portal to all federal, state and local government web resources and services.